032  
ASUS41 KALY 182210  
RWRALY  
 
NEW YORK STATE HOURLY WEATHER ROUNDUP  
NATIONAL WEATHER SERVICE ALBANY NY  
600 PM EDT THU JUL 18 2019  
 
NOTE: "FAIR" INDICATES FEW OR NO CLOUDS BELOW 12,000 FEET WITH NO  
SIGNIFICANT WEATHER AND/OR NO S TO VISIBILITY
.  
 
NYZ032-033-038>043-046>054-057>066-NYZ062>081-082-084-182300-  
EAST  
 
 
CITY SKY/WX TMP DP RH WIND PRES REMARKS
 
ALBANY LGT RAIN 77 70 79 SW3 29.92S  
GLENS FALLS CLOUDY 79 69 71 S5 29.90F  
POUGHKEEPSIE CLOUDY 74 71 91 E3 29.90S FOG  
NEWBURGH LGT RAIN 73 73 100 E10 29.93R FOG  
MONTGOMERY LGT RAIN 73 72 96 NE9 29.91S FOG  
WHITE PLAINS LGT RAIN 72 71 97 E7 29.90S VSB 1/2  
ISLIP CLOUDY 74 72 93 NE8 29.88R  
NEW YORK CITY CLOUDY 73 68 84 NE20 29.88R  
CENTRAL PARK CLOUDY 74 71 91 VRB7 29.92R  

 
 
NYZ005>009-017-018-044>046-055-056-182300-  
CENTRAL  
 
 
CITY SKY/WX TMP DP RH WIND PRES REMARKS
 
FULTON FAIR 82 68 62 NW3 29.89F  
SYRACUSE PTSUNNY 85 69 57 N3 29.87F  
ROME FAIR 84 69 60 SE6 29.88F  
ELMIRA FAIR 84 71 65 NE9 29.89S  
BINGHAMTON FAIR 82 68 62 CALM 29.93S  
MONTICELLO CLOUDY 73 70 90 E5 29.97S  

 
 
NYZ026>034-041>043-087-182300-  
NORTH  
 
 
CITY SKY/WX TMP DP RH WIND PRES REMARKS
 
WATERTOWN FAIR 82 70 66 W6 29.87F  
FORT DRUM NOT AVBL  
OGDENSBURG FAIR 82 66 57 N3 29.85F  
MASSENA FAIR 80 59 48 NE8 29.89F  
SARANAC LAKE FAIR 79 62 56 S5 29.92F  
PLATTSBURGH FAIR 80 65 59 E6 29.89F  

 
 
NYZ001>004-010>016-019>021-085-182300-  
WEST  
 
 
CITY SKY/WX TMP DP RH WIND PRES REMARKS
 
NIAGARA FALLS FAIR 83 69 62 S12 29.86F  
BUFFALO FAIR 83 68 60 SW8 29.87F  
DUNKIRK FAIR 82 70 66 W7 29.89F  
JAMESTOWN PTSUNNY 79 68 69 W3 29.96F  
WELLSVILLE FAIR 82 64 54 VRB6 29.98F  
ROCHESTER FAIR 83 69 62 NE6 29.88F  
PENN YAN FAIR 84 67 56 VRB5 29.91F  

 
 
KEY  
WCI = WIND CHILL INDEX  
VSB = VISIBILITY  
HX = HEAT INDEX  

 
 
 
CLICK HERE TO GO TO PREVIOUS BULLETINS.

The Nexlab NY Page
The Nexlab VT Page
The Nexlab MA Page
The Nexlab CT Page Main Text Page